COSMOS 2251 DEB

Satellite information

Favourite Embed

Satellite Type and Status

DEBRISIN ORBIT

Key statistics

Satellite COSMOS 2251 DEB at a glance.

Uptime

11810

Days in orbit

Revolutions

≈ 14.7

Per day

Orbit

LEO

Low Earth Orbit

Inclination

74.0

Latest

Satellite identification and parameters

Extended collection of information and parameters for COSMOS 2251 DEB.

Object identification

Identified? True

Debris? True

Object name: COSMOS 2251 DEB

International designator: 1993-036LA

Object number (NORAD): 34129

Object ID (CCSDS): 34129

Country: COMMONWEALTH OF INDEPENDENT STATES (CIS)

Current information (Y/N): Y

RCS size: SMALL

Orbital parameters

Period: 97.677 minutes

Inclination: 74.0337 deg

SMA: 7025.672 km

Apoapsis: 673.186 km

Periapsis: 621.888 km

RAAN: 92.5826 deg

Eccentricy: 0.00365076

Argument of periapsis: 191.8315 deg

Mean anomaly: 168.2005 deg

Mean motion: 14.74249345 rev/day

Mean motion (dot): 0.00012292 rev/day2

B* drag term: 0.0018409882 1/REarth

Two-line elements (TLE)

Creation date: Oct. 16, 2025, 2:37 a.m.

Reference frame: TEME

Reference center: EARTH

Epoch: Oct. 15, 2025, 9:31 p.m. UTC

TLE line 0: 0 COSMOS 2251 DEB

TLE line 1: 1 34129U 93036LA 25288.89676769 .00012292 00000-0 18410-2 0 9995

TLE line 2: 2 34129 74.0337 92.5826 0036508 191.8315 168.2005 14.74249345604451

Live tracking on map

Real-time ground track for satellite COSMOS 2251 DEB.

In-orbit conjunctions

A list of the most updated potential collisions computed for object COSMOS 2251 DEB.

Target Orbit TCA Probability of collision Miss distance Type
CZ-6A DEB SSO 2025-09-24 09:56:44 0.0001654976 244.0 (m) DEBRIS
RUBIN 3/SL-8 SSO 2025-05-17 03:30:01 0.0001075737 806.0 (m) PAYLOAD
CZ-6A DEB SSO 2025-02-01 12:02:07 0.0002983712 83.0 (m) DEBRIS

Associated space launch

Military communications satellite. Destroyed in a collision with Iridium 33.

COSMOS 2251 DEB was lifted into orbit during the mission ‘Kosmos-3M | Strela-2M 51’, on board a Kosmos-3M space rocket.

The launch took place on June 16, 1993, 4:17 a.m. from 132/1 (132L).

For more information about the launch, click the button.

Launch to space Kosmos-3M | Strela-2M 51
Kosmos-3M | Strela-2M 51

Agency: N/A

Status: Launch Successful

Launch date: June 16, 1993, 4:17 a.m. UTC

Rocket: Kosmos-3M

Launch pad: 132/1 (132L)

Location: Plesetsk Cosmodrome, Russian Federation

...

Latest news about this satellite

There are no fresh news available about this satellite. Check back as we update our databases every day.


Newsletter sign-up

Weekly statistics, charts and insights to help you stay on top of the space industry.